| time (UTC) | temp F | wind direction | speed MPH | gust MPH | rain 1hr in | rain 24hr in | rain mn in | humidity % | barometer mb |
| 20260504050117 | 65 | 161 | 10.0 | 17.0 | 0.00 | 0.00 | 0.00 | 54 | 1015.4 |
| 20260504044553 | 65 | 167 | 11.0 | 17.0 | 0.00 | 0.00 | 0.00 | 53 | 1015.5 |
| 20260504043108 | 66 | 157 | 10.0 | 21.0 | 0.00 | 0.00 | 0.00 | 52 | 1015.7 |
| 20260504041555 | 66 | 168 | 11.0 | 18.0 | 0.00 | 0.00 | 0.00 | 51 | 1015.8 |
| 20260504040109 | 67 | 167 | 10.0 | 16.0 | 0.00 | 0.00 | 0.00 | 51 | 1015.8 |
| 20260504034551 | 67 | 173 | 10.0 | 21.0 | 0.00 | 0.00 | 0.00 | 50 | 1015.7 |
| 20260504033057 | 68 | 155 | 11.0 | 20.0 | 0.00 | 0.00 | 0.00 | 49 | 1015.7 |
| 20260504031604 | 68 | 167 | 10.0 | 19.0 | 0.00 | 0.00 | 0.00 | 48 | 1015.7 |
| 20260504030053 | 68 | 165 | 11.0 | 21.0 | 0.00 | 0.00 | 0.00 | 47 | 1015.8 |
| 20260504024553 | 69 | 165 | 13.0 | 18.0 | 0.00 | 0.00 | 0.00 | 46 | 1015.6 |
| 20260504023054 | 70 | 173 | 12.0 | 18.0 | 0.00 | 0.00 | 0.00 | 45 | 1015.6 |
| 20260504021555 | 70 | 150 | 10.0 | 16.0 | 0.00 | 0.00 | 0.00 | 43 | 1015.3 |
| 20260504020053 | 70 | 146 | 9.0 | 15.0 | 0.00 | 0.00 | 0.00 | 42 | 1015.5 |
| 20260504014601 | 71 | 153 | 9.0 | 15.0 | 0.00 | 0.00 | 0.00 | 41 | 1015.6 |
| 20260504013107 | 71 | 161 | 11.0 | 16.0 | 0.00 | 0.00 | 0.00 | 39 | 1015.4 |
| 20260504011554 | 72 | 167 | 11.0 | 16.0 | 0.00 | 0.00 | 0.00 | 38 | 1015.3 |
| 20260504010112 | 73 | 177 | 8.0 | 16.0 | 0.00 | 0.00 | 0.00 | 37 | 1015.3 |
| 20260504004555 | 73 | 179 | 8.0 | 16.0 | 0.00 | 0.00 | 0.00 | 36 | 1015.3 |
| 20260504003053 | 74 | 177 | 9.0 | 18.0 | 0.00 | 0.00 | 0.00 | 36 | 1015.7 |
| 20260504001559 | 74 | 165 | 9.0 | 17.0 | 0.00 | 0.00 | 0.00 | 36 | 1015.9 |
| 20260504000059 | 74 | 175 | 11.0 | 18.0 | 0.00 | 0.00 | 0.00 | 35 | 1015.8 |
| 20260503234555 | 75 | 161 | 9.0 | 20.0 | 0.00 | 0.00 | 0.00 | 35 | 1015.9 |
| 20260503233100 | 74 | 155 | 9.0 | 17.0 | 0.00 | 0.00 | 0.00 | 36 | 1016.3 |
| 20260503231555 | 74 | 192 | 10.0 | 22.0 | 0.00 | 0.00 | 0.00 | 36 | 1016.1 |
| 20260503230054 | 74 | 168 | 8.0 | 16.0 | 0.00 | 0.00 | 0.00 | 36 | 1016.3 |
| 20260503224555 | 74 | 176 | 10.0 | 21.0 | 0.00 | 0.00 | 0.00 | 36 | 1016.4 |
| 20260503223055 | 74 | 207 | 14.0 | 23.0 | 0.00 | 0.00 | 0.00 | 36 | 1016.9 |
| 20260503221559 | 74 | 174 | 7.0 | 19.0 | 0.00 | 0.00 | 0.00 | 36 | 1016.8 |
| 20260503220104 | 74 | 194 | 13.0 | 19.0 | 0.00 | 0.00 | 0.00 | 38 | 1017.0 |
| 20260503214558 | 73 | 210 | 11.0 | 21.0 | 0.00 | 0.00 | 0.00 | 37 | 1017.2 |
| 20260503213100 | 73 | 171 | 9.0 | 21.0 | 0.00 | 0.00 | 0.00 | 37 | 1017.4 |
| 20260503211559 | 73 | 163 | 11.0 | 19.0 | 0.00 | 0.00 | 0.00 | 37 | 1017.6 |
| 20260503210058 | 74 | 177 | 9.0 | 17.0 | 0.00 | 0.00 | 0.00 | 36 | 1018.1 |
| 20260503204606 | 73 | 200 | 13.0 | 20.0 | 0.00 | 0.00 | 0.00 | 36 | 1018.4 |
| 20260503203107 | 73 | 187 | 9.0 | 20.0 | 0.00 | 0.00 | 0.00 | 36 | 1018.5 |
| 20260503201558 | 73 | 190 | 10.0 | 20.0 | 0.00 | 0.00 | 0.00 | 37 | 1018.7 |
| 20260503200057 | 72 | 171 | 7.0 | 19.0 | 0.00 | 0.00 | 0.00 | 38 | 1019.0 |
| 20260503194622 | 72 | 174 | 16.0 | 24.0 | 0.00 | 0.00 | 0.00 | 39 | 1019.1 |
| 20260503193100 | 73 | 169 | 11.0 | 26.0 | 0.00 | 0.00 | 0.00 | 39 | 1019.4 |
| 20260503191603 | 72 | 170 | 11.0 | 21.0 | 0.00 | 0.00 | 0.00 | 40 | 1020.0 |
| 20260503190101 | 71 | 172 | 13.0 | 22.0 | 0.00 | 0.00 | 0.00 | 40 | 1020.2 |
| 20260503184556 | 70 | 169 | 11.0 | 21.0 | 0.00 | 0.00 | 0.00 | 41 | 1020.4 |
| 20260503183104 | 70 | 180 | 11.0 | 21.0 | 0.00 | 0.00 | 0.00 | 43 | 1020.6 |
| 20260503181552 | 70 | 166 | 13.0 | 21.0 | 0.00 | 0.00 | 0.00 | 42 | 1021.3 |
| 20260503180105 | 69 | 159 | 11.0 | 21.0 | 0.00 | 0.00 | 0.00 | 40 | 1021.5 |
| 20260503174553 | 69 | 157 | 9.0 | 18.0 | 0.00 | 0.00 | 0.00 | 45 | 1021.7 |
| 20260503173145 | 69 | 167 | 12.0 | 21.0 | 0.00 | 0.00 | 0.00 | 45 | 1021.8 |
| 20260503171553 | 68 | 158 | 8.0 | 21.0 | 0.00 | 0.00 | 0.00 | 46 | 1022.0 |
| 20260503130110 | 55 | 178 | 5.0 | 9.0 | 0.00 | 0.00 | 0.00 | 72 | 1022.5 |
| 20260503120109 | 52 | 175 | 4.0 | 6.0 | 0.00 | 0.00 | 0.00 | 75 | 1021.8 |
| 20260503100109 | 54 | 171 | 6.0 | 9.0 | 0.00 | 0.00 | 0.00 | 70 | 1021.7 |
| 20260503081558 | 56 | 174 | 5.0 | 9.0 | 0.00 | 0.00 | 0.00 | 68 | 1021.9 |
| 20260503071552 | 56 | 156 | 7.0 | 10.0 | 0.00 | 0.00 | 0.00 | 69 | 1022.6 |
| 20260503054556 | 57 | 146 | 7.0 | 10.0 | 0.00 | 0.00 | 0.00 | 67 | 1022.8 |
| 20260503053053 | 58 | 146 | 6.0 | 8.0 | 0.00 | 0.00 | 0.00 | 66 | 1022.7 |
| 20260503051551 | 58 | 153 | 5.0 | 9.0 | 0.00 | 0.00 | 0.00 | 65 | 1022.7 |